Atlantic Frontier — VRDJ7 — position and weather

sailwx.info

Track history (hours):
 
Tides and Currents Weather Stations Pressure Air Temp Water Temp Dewpoint Dewpoint Depression Visibility Wind Speed Wind Dir Waves Ship Positions

Atlantic Frontier

Last reported at 2017-Oct-25 00:11 UTC. Time now 2017-Nov-23 17:12 UTC.
Position N 29°23' W 094°53'.
Warning: this ship's position is 29 days out of date.

Length 183 m; draft 7.4 m.

Type: Tanker. MMSI: 477969700.

Date/timePositionNaut miles runAvg speedWind from/ knotsBaromVisibWave heightAir tempDewpointWater temp
2017-Oct-25 00:11N 29°23' W 094°53'1 7.3
2017-Oct-25 00:00N 29°22' W 094°51'  
2017-Oct-19 14:50N 29°35' W 093°14'0 0.0
2017-Oct-19 14:29N 29°35' W 093°14'0 0.0
2017-Oct-19 13:59N 29°35' W 093°14'0 0.0
2017-Oct-19 13:29N 29°35' W 093°14'0 0.0
2017-Oct-19 12:53N 29°35' W 093°14'0 0.0
2017-Oct-19 12:29N 29°35' W 093°14'13 0.3
2017-Oct-17 21:49N 29°47' W 093°21'3 8.4
2017-Oct-17 21:30N 29°50' W 093°21'4 8.8
2017-Oct-17 21:01N 29°54' W 093°21'5 9.6
2017-Oct-17 20:30N 29°59' W 093°20'3 6.9
2017-Oct-17 20:00N 30°02' W 093°20'4 7.1
2017-Oct-17 19:30N 30°06' W 093°20'4 7.2
2017-Oct-17 19:01N 30°09' W 093°20'1 2.9
2017-Oct-17 18:31N 30°11' W 093°19'0 0.0
2017-Oct-17 17:58N 30°11' W 093°19'0 0.0
2017-Oct-17 17:28N 30°11' W 093°19'0 0.0
2017-Oct-17 16:58N 30°11' W 093°19'0 0.0
2017-Oct-17 16:28N 30°11' W 093°19'0 0.0
2017-Oct-17 15:58N 30°11' W 093°19'0 0.0
2017-Oct-17 15:28N 30°11' W 093°19'0 0.0
2017-Oct-17 14:58N 30°11' W 093°19'0 0.0
2017-Oct-17 14:28N 30°11' W 093°19'0 0.0
2017-Oct-17 13:58N 30°11' W 093°19'0 0.0
2017-Oct-17 13:28N 30°11' W 093°19'0 0.0
2017-Oct-17 12:58N 30°11' W 093°19'0 0.0
2017-Oct-17 12:28N 30°11' W 093°19'0 0.0
2017-Oct-17 11:58N 30°11' W 093°19'0 0.0
2017-Oct-17 11:28N 30°11' W 093°19'0 0.0
2017-Oct-17 10:58N 30°11' W 093°19'0 0.0
2017-Oct-17 10:28N 30°11' W 093°19'0 0.0
2017-Oct-17 09:58N 30°11' W 093°19'0 0.0
2017-Oct-17 09:28N 30°11' W 093°19'0 0.0
2017-Oct-17 08:58N 30°11' W 093°19'0 0.0
2017-Oct-17 08:28N 30°11' W 093°19'0 0.0
2017-Oct-17 07:58N 30°11' W 093°19'0 0.0
2017-Oct-17 07:28N 30°11' W 093°19'0 0.0
2017-Oct-17 06:58N 30°11' W 093°19'0 0.0
2017-Oct-17 06:28N 30°11' W 093°19'0 0.0
2017-Oct-17 05:58N 30°11' W 093°19'0 0.0
2017-Oct-17 05:28N 30°11' W 093°19'0 0.0
2017-Oct-17 04:58N 30°11' W 093°19'0 0.0
2017-Oct-17 04:28N 30°11' W 093°19'0 0.0
2017-Oct-17 03:58N 30°11' W 093°19'0 0.0
2017-Oct-17 03:16N 30°11' W 093°19'0 0.0
2017-Oct-17 02:58N 30°11' W 093°19'0 0.0
2017-Oct-17 02:28N 30°11' W 093°19'0 0.0
2017-Oct-17 01:58N 30°11' W 093°19'0 0.0
2017-Oct-17 01:28N 30°11' W 093°19'0 0.0
2017-Oct-17 00:58N 30°11' W 093°19'0 0.0
2017-Oct-17 00:28N 30°11' W 093°19'0 0.0
2017-Oct-16 23:58N 30°11' W 093°19'0 0.0
2017-Oct-16 23:28N 30°11' W 093°19'0 0.0
2017-Oct-16 22:58N 30°11' W 093°19'0 0.0
2017-Oct-16 22:28N 30°11' W 093°19'0 0.0
2017-Oct-16 21:58N 30°11' W 093°19'0 0.0
2017-Oct-16 21:28N 30°11' W 093°19'0 0.0
2017-Oct-16 20:58N 30°11' W 093°19'0 0.0
2017-Oct-16 20:28N 30°11' W 093°19'0 0.0
2017-Oct-16 19:58N 30°11' W 093°19'0 0.0
2017-Oct-16 19:28N 30°11' W 093°19'0 0.0
2017-Oct-16 18:58N 30°11' W 093°19'0 0.0
2017-Oct-16 18:28N 30°11' W 093°19'0 0.0
2017-Oct-16 17:58N 30°11' W 093°19'0 0.0
2017-Oct-16 17:28N 30°11' W 093°19'0 0.0
2017-Oct-16 16:58N 30°11' W 093°19'0 0.0
2017-Oct-16 16:28N 30°11' W 093°19'0 0.0
2017-Oct-16 15:58N 30°11' W 093°19'0 0.0
2017-Oct-16 15:28N 30°11' W 093°19'0 0.0
2017-Oct-16 14:58N 30°11' W 093°19'0 0.0
2017-Oct-16 13:58N 30°11' W 093°19'0 0.0
2017-Oct-16 13:28N 30°11' W 093°19'0 0.0
2017-Oct-16 12:58N 30°11' W 093°19'0 0.0
2017-Oct-16 12:28N 30°11' W 093°19'0 0.0
2017-Oct-16 11:58N 30°11' W 093°19'0 0.0
2017-Oct-16 11:28N 30°11' W 093°19'0 0.0
2017-Oct-16 10:58N 30°11' W 093°19'0 0.0
2017-Oct-16 10:28N 30°11' W 093°19'0 0.0
2017-Oct-16 09:58N 30°11' W 093°19'0 0.0
2017-Oct-16 09:28N 30°11' W 093°19'0 0.0
2017-Oct-16 08:58N 30°11' W 093°19'0 0.0
2017-Oct-16 08:28N 30°11' W 093°19'0 0.0
2017-Oct-16 07:58N 30°11' W 093°19'0 0.0
2017-Oct-16 07:28N 30°11' W 093°19'0 0.0
2017-Oct-16 06:58N 30°11' W 093°19'0 0.0
2017-Oct-16 06:28N 30°11' W 093°19'0 0.0
2017-Oct-16 05:58N 30°11' W 093°19'0 0.0
2017-Oct-16 05:25N 30°11' W 093°19'0 0.0
2017-Oct-16 04:58N 30°11' W 093°19'0 0.0
2017-Oct-16 04:28N 30°11' W 093°19'0 0.0
2017-Oct-16 03:58N 30°11' W 093°19'0 0.0
2017-Oct-16 03:28N 30°11' W 093°19'0 0.0
2017-Oct-16 02:58N 30°11' W 093°19'0 0.0
2017-Oct-16 02:28N 30°11' W 093°19'0 0.0
2017-Oct-16 01:58N 30°11' W 093°19'0 0.0
2017-Oct-16 01:28N 30°11' W 093°19'0 0.0
2017-Oct-16 00:58N 30°11' W 093°19'0 0.0
2017-Oct-16 00:28N 30°11' W 093°19'0 0.0
2017-Oct-15 23:58N 30°11' W 093°19'0 0.0
2017-Oct-15 23:28N 30°11' W 093°19'0 0.0
2017-Oct-15 22:58N 30°11' W 093°19'0 0.0
2017-Oct-15 22:28N 30°11' W 093°19'0 0.0
2017-Oct-15 21:58N 30°11' W 093°19'0 0.0
2017-Oct-15 21:28N 30°11' W 093°19'0 0.0
2017-Oct-15 20:58N 30°11' W 093°19'0 0.0
2017-Oct-15 20:28N 30°11' W 093°19'0 0.0
2017-Oct-15 19:58N 30°11' W 093°19'0 0.0
2017-Oct-15 19:28N 30°11' W 093°19'0 0.0
2017-Oct-15 18:58N 30°11' W 093°19'0 0.0
2017-Oct-15 18:28N 30°11' W 093°19'0 0.0
2017-Oct-15 17:58N 30°11' W 093°19'0 0.0
2017-Oct-15 17:28N 30°11' W 093°19'0 0.0
2017-Oct-15 16:58N 30°11' W 093°19'0 0.0
2017-Oct-15 16:28N 30°11' W 093°19'0 0.0
2017-Oct-15 15:58N 30°11' W 093°19'0 0.0
2017-Oct-15 15:28N 30°11' W 093°19'0 0.0
2017-Oct-15 14:58N 30°11' W 093°19'0 0.0
2017-Oct-15 13:58N 30°11' W 093°19'0 0.0
2017-Oct-15 13:28N 30°11' W 093°19'0 0.0
2017-Oct-15 12:58N 30°11' W 093°19'0 0.0
2017-Oct-15 12:28N 30°11' W 093°19'0 0.0
2017-Oct-15 11:58N 30°11' W 093°19'0 0.0
2017-Oct-15 11:28N 30°11' W 093°19'0 0.0
2017-Oct-15 10:58N 30°11' W 093°19'0 0.0
2017-Oct-15 10:28N 30°11' W 093°19'0 0.0
2017-Oct-15 09:58N 30°11' W 093°19'0 0.0
2017-Oct-15 09:28N 30°11' W 093°19'0 0.0
2017-Oct-15 08:58N 30°11' W 093°19'0 0.0
2017-Oct-15 08:28N 30°11' W 093°19'0 0.0
2017-Oct-15 07:58N 30°11' W 093°19'0 0.0
2017-Oct-15 07:28N 30°11' W 093°19'0 0.0
2017-Oct-15 06:58N 30°11' W 093°19'0 0.0
2017-Oct-15 06:28N 30°11' W 093°19'0 0.0
2017-Oct-15 05:58N 30°11' W 093°19'0 0.0
2017-Oct-15 05:28N 30°11' W 093°19'0 0.0
2017-Oct-15 04:58N 30°11' W 093°19'0 0.0
2017-Oct-15 04:28N 30°11' W 093°19'0 0.0
2017-Oct-15 03:58N 30°11' W 093°19'0 0.0
2017-Oct-15 03:28N 30°11' W 093°19'0 0.0
2017-Oct-15 02:58N 30°11' W 093°19'0 0.0
2017-Oct-15 02:28N 30°11' W 093°19'0 0.0
2017-Oct-15 01:58N 30°11' W 093°19'0 0.0
2017-Oct-15 01:28N 30°11' W 093°19'0 0.0
2017-Oct-15 00:58N 30°11' W 093°19'0 0.0
2017-Oct-15 00:28N 30°11' W 093°19'  
Track history (hours):
 
Tides and Currents Weather Stations Pressure Air Temp Water Temp Dewpoint Dewpoint Depression Visibility Wind Speed Wind Dir Waves Ship Positions

Atlantic Frontier

Last reported at 2017-Oct-25 00:11 UTC. Time now 2017-Nov-23 17:12 UTC.
Position N 29°23' W 094°53'.
Warning: this ship's position is 29 days out of date.

Length 183 m; draft 7.4 m.

Type: Tanker. MMSI: 477969700.

Date/timePositionNaut miles runAvg speedWind from/ knotsBaromVisibWave heightAir tempDewpointWater temp
2017-Oct-25 00:11N 29°23' W 094°53'1 7.3
2017-Oct-25 00:00N 29°22' W 094°51'  
2017-Oct-19 14:50N 29°35' W 093°14'0 0.0
2017-Oct-19 14:29N 29°35' W 093°14'0 0.0
2017-Oct-19 13:59N 29°35' W 093°14'0 0.0
2017-Oct-19 13:29N 29°35' W 093°14'0 0.0
2017-Oct-19 12:53N 29°35' W 093°14'0 0.0
2017-Oct-19 12:29N 29°35' W 093°14'13 0.3
2017-Oct-17 21:49N 29°47' W 093°21'3 8.4
2017-Oct-17 21:30N 29°50' W 093°21'4 8.8
2017-Oct-17 21:01N 29°54' W 093°21'5 9.6
2017-Oct-17 20:30N 29°59' W 093°20'3 6.9
2017-Oct-17 20:00N 30°02' W 093°20'4 7.1
2017-Oct-17 19:30N 30°06' W 093°20'4 7.2
2017-Oct-17 19:01N 30°09' W 093°20'1 2.9
2017-Oct-17 18:31N 30°11' W 093°19'0 0.0
2017-Oct-17 17:58N 30°11' W 093°19'0 0.0
2017-Oct-17 17:28N 30°11' W 093°19'0 0.0
2017-Oct-17 16:58N 30°11' W 093°19'0 0.0
2017-Oct-17 16:28N 30°11' W 093°19'0 0.0
2017-Oct-17 15:58N 30°11' W 093°19'0 0.0
2017-Oct-17 15:28N 30°11' W 093°19'0 0.0
2017-Oct-17 14:58N 30°11' W 093°19'0 0.0
2017-Oct-17 14:28N 30°11' W 093°19'0 0.0
2017-Oct-17 13:58N 30°11' W 093°19'0 0.0
2017-Oct-17 13:28N 30°11' W 093°19'0 0.0
2017-Oct-17 12:58N 30°11' W 093°19'0 0.0
2017-Oct-17 12:28N 30°11' W 093°19'0 0.0
2017-Oct-17 11:58N 30°11' W 093°19'0 0.0
2017-Oct-17 11:28N 30°11' W 093°19'0 0.0
2017-Oct-17 10:58N 30°11' W 093°19'0 0.0
2017-Oct-17 10:28N 30°11' W 093°19'0 0.0
2017-Oct-17 09:58N 30°11' W 093°19'0 0.0
2017-Oct-17 09:28N 30°11' W 093°19'0 0.0
2017-Oct-17 08:58N 30°11' W 093°19'0 0.0
2017-Oct-17 08:28N 30°11' W 093°19'0 0.0
2017-Oct-17 07:58N 30°11' W 093°19'0 0.0
2017-Oct-17 07:28N 30°11' W 093°19'0 0.0
2017-Oct-17 06:58N 30°11' W 093°19'0 0.0
2017-Oct-17 06:28N 30°11' W 093°19'0 0.0
2017-Oct-17 05:58N 30°11' W 093°19'0 0.0
2017-Oct-17 05:28N 30°11' W 093°19'0 0.0
2017-Oct-17 04:58N 30°11' W 093°19'0 0.0
2017-Oct-17 04:28N 30°11' W 093°19'0 0.0
2017-Oct-17 03:58N 30°11' W 093°19'0 0.0
2017-Oct-17 03:16N 30°11' W 093°19'0 0.0
2017-Oct-17 02:58N 30°11' W 093°19'0 0.0
2017-Oct-17 02:28N 30°11' W 093°19'0 0.0
2017-Oct-17 01:58N 30°11' W 093°19'0 0.0
2017-Oct-17 01:28N 30°11' W 093°19'0 0.0
2017-Oct-17 00:58N 30°11' W 093°19'0 0.0
2017-Oct-17 00:28N 30°11' W 093°19'0 0.0
2017-Oct-16 23:58N 30°11' W 093°19'0 0.0
2017-Oct-16 23:28N 30°11' W 093°19'0 0.0
2017-Oct-16 22:58N 30°11' W 093°19'0 0.0
2017-Oct-16 22:28N 30°11' W 093°19'0 0.0
2017-Oct-16 21:58N 30°11' W 093°19'0 0.0
2017-Oct-16 21:28N 30°11' W 093°19'0 0.0
2017-Oct-16 20:58N 30°11' W 093°19'0 0.0
2017-Oct-16 20:28N 30°11' W 093°19'0 0.0
2017-Oct-16 19:58N 30°11' W 093°19'0 0.0
2017-Oct-16 19:28N 30°11' W 093°19'0 0.0
2017-Oct-16 18:58N 30°11' W 093°19'0 0.0
2017-Oct-16 18:28N 30°11' W 093°19'0 0.0
2017-Oct-16 17:58N 30°11' W 093°19'0 0.0
2017-Oct-16 17:28N 30°11' W 093°19'0 0.0
2017-Oct-16 16:58N 30°11' W 093°19'0 0.0
2017-Oct-16 16:28N 30°11' W 093°19'0 0.0
2017-Oct-16 15:58N 30°11' W 093°19'0 0.0
2017-Oct-16 15:28N 30°11' W 093°19'0 0.0
2017-Oct-16 14:58N 30°11' W 093°19'0 0.0
2017-Oct-16 13:58N 30°11' W 093°19'0 0.0
2017-Oct-16 13:28N 30°11' W 093°19'0 0.0
2017-Oct-16 12:58N 30°11' W 093°19'0 0.0
2017-Oct-16 12:28N 30°11' W 093°19'0 0.0
2017-Oct-16 11:58N 30°11' W 093°19'0 0.0
2017-Oct-16 11:28N 30°11' W 093°19'0 0.0
2017-Oct-16 10:58N 30°11' W 093°19'0 0.0
2017-Oct-16 10:28N 30°11' W 093°19'0 0.0
2017-Oct-16 09:58N 30°11' W 093°19'0 0.0
2017-Oct-16 09:28N 30°11' W 093°19'0 0.0
2017-Oct-16 08:58N 30°11' W 093°19'0 0.0
2017-Oct-16 08:28N 30°11' W 093°19'0 0.0
2017-Oct-16 07:58N 30°11' W 093°19'0 0.0
2017-Oct-16 07:28N 30°11' W 093°19'0 0.0
2017-Oct-16 06:58N 30°11' W 093°19'0 0.0
2017-Oct-16 06:28N 30°11' W 093°19'0 0.0
2017-Oct-16 05:58N 30°11' W 093°19'0 0.0
2017-Oct-16 05:25N 30°11' W 093°19'0 0.0
2017-Oct-16 04:58N 30°11' W 093°19'0 0.0
2017-Oct-16 04:28N 30°11' W 093°19'0 0.0
2017-Oct-16 03:58N 30°11' W 093°19'0 0.0
2017-Oct-16 03:28N 30°11' W 093°19'0 0.0
2017-Oct-16 02:58N 30°11' W 093°19'0 0.0
2017-Oct-16 02:28N 30°11' W 093°19'0 0.0
2017-Oct-16 01:58N 30°11' W 093°19'0 0.0
2017-Oct-16 01:28N 30°11' W 093°19'0 0.0
2017-Oct-16 00:58N 30°11' W 093°19'0 0.0
2017-Oct-16 00:28N 30°11' W 093°19'0 0.0
2017-Oct-15 23:58N 30°11' W 093°19'0 0.0
2017-Oct-15 23:28N 30°11' W 093°19'0 0.0
2017-Oct-15 22:58N 30°11' W 093°19'0 0.0
2017-Oct-15 22:28N 30°11' W 093°19'0 0.0
2017-Oct-15 21:58N 30°11' W 093°19'0 0.0
2017-Oct-15 21:28N 30°11' W 093°19'0 0.0
2017-Oct-15 20:58N 30°11' W 093°19'0 0.0
2017-Oct-15 20:28N 30°11' W 093°19'0 0.0
2017-Oct-15 19:58N 30°11' W 093°19'0 0.0
2017-Oct-15 19:28N 30°11' W 093°19'0 0.0
2017-Oct-15 18:58N 30°11' W 093°19'0 0.0
2017-Oct-15 18:28N 30°11' W 093°19'0 0.0
2017-Oct-15 17:58N 30°11' W 093°19'0 0.0
2017-Oct-15 17:28N 30°11' W 093°19'0 0.0
2017-Oct-15 16:58N 30°11' W 093°19'0 0.0
2017-Oct-15 16:28N 30°11' W 093°19'0 0.0
2017-Oct-15 15:58N 30°11' W 093°19'0 0.0
2017-Oct-15 15:28N 30°11' W 093°19'0 0.0
2017-Oct-15 14:58N 30°11' W 093°19'0 0.0
2017-Oct-15 13:58N 30°11' W 093°19'0 0.0
2017-Oct-15 13:28N 30°11' W 093°19'0 0.0
2017-Oct-15 12:58N 30°11' W 093°19'0 0.0
2017-Oct-15 12:28N 30°11' W 093°19'0 0.0
2017-Oct-15 11:58N 30°11' W 093°19'0 0.0
2017-Oct-15 11:28N 30°11' W 093°19'0 0.0
2017-Oct-15 10:58N 30°11' W 093°19'0 0.0
2017-Oct-15 10:28N 30°11' W 093°19'0 0.0
2017-Oct-15 09:58N 30°11' W 093°19'0 0.0
2017-Oct-15 09:28N 30°11' W 093°19'0 0.0
2017-Oct-15 08:58N 30°11' W 093°19'0 0.0
2017-Oct-15 08:28N 30°11' W 093°19'0 0.0
2017-Oct-15 07:58N 30°11' W 093°19'0 0.0
2017-Oct-15 07:28N 30°11' W 093°19'0 0.0
2017-Oct-15 06:58N 30°11' W 093°19'0 0.0
2017-Oct-15 06:28N 30°11' W 093°19'0 0.0
2017-Oct-15 05:58N 30°11' W 093°19'0 0.0
2017-Oct-15 05:28N 30°11' W 093°19'0 0.0
2017-Oct-15 04:58N 30°11' W 093°19'0 0.0
2017-Oct-15 04:28N 30°11' W 093°19'0 0.0
2017-Oct-15 03:58N 30°11' W 093°19'0 0.0
2017-Oct-15 03:28N 30°11' W 093°19'0 0.0
2017-Oct-15 02:58N 30°11' W 093°19'0 0.0
2017-Oct-15 02:28N 30°11' W 093°19'0 0.0
2017-Oct-15 01:58N 30°11' W 093°19'0 0.0
2017-Oct-15 01:28N 30°11' W 093°19'0 0.0
2017-Oct-15 00:58N 30°11' W 093°19'0 0.0
2017-Oct-15 00:28N 30°11' W 093°19'  

Dump ship's entire track history